Simultaneous Nadir Overpasses (SNOs) Predictions

Prediction of SNOs between AQUA and METOP-A Satellite Orbit:

Table of predicted SNOs for the next 14.0 days since TLE Epoch: 12/25/2015
Index Date (AQUA) Time (AQUA) Lat,Lon (AQUA) SZA (AQUA ) Date (METOP-A) Time (METOP-A) Lat,Lon (METOP-A) SZA (METOP-A ) Distance(km) Time Diff (sec)
1 12/25/2015 14:22:51 -73.86, 138.41 82.77 12/25/2015 14:22:08 -73.83, 138.38 82.79 2.72 43
2 12/25/2015 15:12:19 73.89, -54.03 97.27 12/25/2015 15:12:46 73.92, -54.08 97.30 3.31 27
3 12/28/2015 09:57:06 -73.84,-155.11 82.89 12/28/2015 09:56:31 -73.86,-155.14 82.86 3.04 35
4 12/28/2015 10:46:35 73.93, 12.32 97.21 12/28/2015 10:47:10 73.90, 12.29 97.18 3.36 35
5 12/31/2015 05:31:21 -73.85, -88.69 83.03 12/31/2015 05:30:55 -73.84, -88.79 83.04 3.02 26
6 12/31/2015 06:20:49 73.95, 78.73 97.07 12/31/2015 06:21:32 73.93, 78.76 97.05 2.30 43
7 01/03/2016 00:15:55 73.15, 171.58 96.02 01/03/2016 00:14:50 73.12, 168.65 96.09 94.70 65
8 01/03/2016 01:05:35 -73.89, -22.33 83.21 01/03/2016 01:05:17 -73.86, -22.33 83.24 3.19 18
9 01/03/2016 01:55:03 73.94, 145.19 96.84 01/03/2016 01:55:55 73.95, 145.22 96.85 1.35 52
10 01/05/2016 19:50:16 73.54,-122.77 96.15 01/05/2016 19:49:06 73.48,-124.13 96.15 43.33 70
11 01/05/2016 20:39:48 -73.85, 44.19 83.53 01/05/2016 20:39:40 -73.87, 44.11 83.51 3.46 8
12 01/05/2016 21:29:17 73.95,-148.40 96.58 01/05/2016 21:30:18 73.96,-148.34 96.58 1.89 61




NCC Satellite Simultaneous Nadir Overpasses (SNOs) Prediction Service
